Vorticity
7 7 7 6 7 6 6 5 5 5 5 7 7 9 13 12 9 8 4 4 9 10 8 5 6 7 4 3 5 8 9 7 4 2 -0 -1 3 4 0 -2 -3 -2 -3 -3 0 2 4 4 3 2 6 12 11 10 9 7 6 5 5 4 4 6 7 8 8 7 7 7 6 6 6 7 7 6 7 7 7 5 5 5 5 6 7 8 9 11 9 9 8 7 6 5 5 6 5 5 7
8 8 7 7 7 6 7 7 6 7 6 6 8 11 13 11 10 9 7 6 8 10 9 6 6 8 5 4 5 7 5 3 4 1 0 1 0 -1 -1 -4 -5 -2 -3 1 1 -3 3 7 4 5 15 20 13 7 4 2 4 4 5 4 6 7 7 7 7 8 8 6 6 6 5 5 5 6 7 6 6 5 5 5 5 6 7 8 9 11 9 9 8 7 7 5 4 5 5 4 7
7 7 6 7 7 7 7 6 7 8 7 8 11 14 12 9 9 9 9 7 6 8 8 6 6 7 8 8 6 5 4 3 5 3 4 4 2 1 -0 -3 -2 1 1 5 -3 -11 1 8 4 5 12 12 4 -0 -2 1 5 6 6 4 5 6 7 6 6 7 8 7 6 5 5 5 5 6 7 6 5 5 5 5 6 5 7 8 9 10 10 10 7 6 7 5 5 4 4 4 5
7 6 6 7 7 7 7 7 7 7 8 10 14 16 11 8 10 6 7 7 4 8 7 6 7 4 6 6 4 6 5 4 4 4 5 4 5 7 3 -1 -2 -1 1 1 -6 -8 4 9 6 4 -0 -7 -5 -1 1 6 8 7 4 4 5 5 6 6 7 8 8 6 5 5 5 4 5 6 5 5 5 5 5 5 6 6 7 7 9 11 10 12 7 5 7 4 4 5 4 4 5
7 6 7 8 6 7 7 7 8 9 10 14 17 15 11 8 10 6 9 10 4 8 7 7 7 1 4 3 3 5 4 4 4 3 3 5 5 5 4 0 -2 -2 -1 -0 2 9 15 11 4 5 4 -2 -0 4 5 7 6 4 3 5 6 6 8 8 8 9 8 6 5 5 5 5 4 5 5 5 6 5 6 5 6 6 7 7 10 12 11 13 8 5 8 3 2 4 4 5 5
6 6 7 7 7 7 7 8 8 10 12 19 20 12 11 8 7 5 6 9 4 9 8 8 7 1 3 1 1 -1 -2 3 3 2 1 3 3 2 2 -0 2 4 6 6 9 16 17 11 8 8 9 6 4 5 6 5 3 3 6 7 8 10 10 8 8 8 7 7 6 5 4 5 4 5 5 5 6 6 7 6 7 7 7 8 10 12 12 13 9 7 9 5 2 2 2 5 5
6 7 8 7 7 7 7 9 8 12 13 20 17 8 13 4 6 8 -3 5 9 10 9 7 6 3 4 1 2 -1 -3 -0 1 3 1 1 1 1 0 1 8 10 10 9 8 10 8 7 8 7 7 7 5 7 6 3 2 5 9 9 10 10 8 7 7 6 6 6 6 5 4 4 4 4 4 5 6 6 7 8 7 7 7 8 10 11 11 12 11 10 10 7 4 3 1 4 5
6 6 7 6 7 8 10 11 12 17 16 21 13 5 12 0 8 10 -9 4 9 7 10 7 5 4 5 2 2 2 1 2 1 1 1 2 1 2 4 5 6 5 6 10 12 3 0 5 5 5 10 10 9 9 6 3 6 10 11 9 9 7 6 6 4 5 6 6 5 4 4 4 4 3 4 6 7 7 8 9 8 7 7 8 9 11 12 10 10 9 9 8 4 4 3 3 4
7 6 7 8 8 9 10 11 14 15 12 18 11 5 13 2 8 5 -10 6 7 3 8 6 6 4 4 3 1 1 0 2 3 4 5 5 6 5 4 7 6 1 5 20 27 11 4 12 9 10 13 11 9 9 5 6 10 11 10 8 7 5 4 5 5 6 5 5 5 4 4 5 5 5 7 8 8 8 8 9 8 8 8 9 9 11 12 9 7 6 7 7 6 5 5 4 4
7 7 8 9 7 8 9 10 13 9 8 16 11 9 11 4 6 -4 -10 8 7 5 6 3 5 2 1 1 0 0 -1 2 5 7 7 4 4 1 0 15 21 8 7 23 31 18 11 12 10 9 9 10 10 9 11 14 14 11 9 6 5 4 4 5 5 6 5 5 4 4 5 5 6 7 7 9 9 8 7 7 8 9 10 10 9 10 12 10 6 5 5 5 6 6 6 6 5
7 8 7 8 9 10 11 11 13 10 13 19 15 12 9 5 6 -3 -6 4 6 7 4 2 3 2 3 1 1 1 3 7 8 9 8 8 7 5 3 6 11 7 8 19 23 17 14 11 7 7 8 13 14 14 17 16 11 7 6 5 5 4 4 5 6 4 2 2 2 2 2 3 4 5 6 7 10 11 9 7 6 7 9 11 10 8 9 10 8 7 5 3 5 6 5 6 6
7 8 6 8 9 10 12 13 13 11 13 19 21 15 8 5 4 2 1 -1 3 7 3 2 2 2 5 4 4 2 6 5 1 6 8 11 15 24 25 6 0 11 12 13 13 9 11 13 10 11 14 15 16 16 14 9 7 7 6 3 1 2 3 3 3 1 -0 0 1 0 1 3 3 3 4 5 7 10 10 9 9 7 7 10 12 10 7 7 8 8 6 4 4 5 5 4 4
6 8 7 9 8 10 15 14 11 8 11 19 25 16 8 4 -0 1 5 3 2 5 2 1 3 4 4 3 5 2 4 -0 -5 5 4 7 18 28 36 23 15 18 13 11 13 11 10 13 15 14 14 14 15 13 9 7 7 4 1 -0 1 2 4 4 3 3 5 7 7 9 10 7 7 8 6 4 5 7 8 6 7 8 7 10 13 11 7 6 7 8 7 4 4 5 5 4 3
7 7 8 9 9 10 12 14 11 9 12 18 21 16 10 3 -1 -1 3 7 5 6 1 -2 2 4 3 1 4 2 4 4 4 13 8 7 10 9 20 24 20 15 13 15 18 21 16 12 13 12 13 15 13 9 5 6 4 1 -1 -0 2 2 3 3 4 6 9 13 17 18 14 10 11 10 7 5 5 6 8 10 10 11 10 10 14 13 8 6 6 8 8 5 5 7 7 8 8
7 8 9 8 9 9 10 13 7 8 15 14 13 17 15 6 4 4 3 5 4 7 2 1 4 2 3 0 2 7 10 10 5 8 7 9 7 5 17 19 17 15 13 14 10 16 17 13 13 13 14 11 7 5 4 3 0 -0 0 0 1 3 5 6 7 11 11 11 12 10 9 12 13 12 11 9 9 8 7 12 13 12 14 11 12 14 10 6 6 8 8 8 7 8 10 11 12
7 8 10 9 9 9 12 12 4 10 16 9 9 15 16 8 4 4 6 8 4 5 1 2 4 2 6 5 4 8 10 7 -1 2 3 8 14 11 12 10 13 14 12 13 11 14 17 15 14 11 8 5 4 4 3 2 2 -0 -2 -0 4 5 5 10 12 12 9 4 0 1 7 11 9 7 8 12 13 13 14 13 8 6 12 13 11 11 11 9 7 8 8 8 8 8 8 8 10
7 8 10 10 10 8 10 12 7 12 13 6 8 13 13 9 5 2 4 6 3 5 1 -0 2 2 5 4 5 8 14 15 12 15 8 10 15 6 2 4 7 10 15 15 11 13 15 13 11 9 6 3 4 2 0 -2 -4 -3 -1 2 6 6 6 8 7 6 6 5 4 6 10 8 6 -1 -5 5 6 4 9 12 12 11 12 12 11 9 9 9 8 8 8 7 7 6 6 6 7
7 7 8 8 10 8 8 11 9 11 13 7 4 7 8 2 1 1 -2 -3 -2 2 -1 -1 1 2 4 6 10 11 14 18 24 27 16 10 11 10 10 10 7 9 14 10 9 12 11 12 10 8 5 3 4 1 -0 -2 -1 -1 2 8 11 13 12 10 7 7 8 8 8 10 9 7 11 8 -1 3 5 5 5 6 9 11 15 15 13 12 10 9 9 9 8 8 7 6 7 6 7
6 4 7 10 10 7 6 6 7 11 12 11 5 -0 -1 -10 -8 1 2 1 3 4 1 3 6 5 6 6 9 13 15 16 21 23 19 11 9 15 14 12 9 5 15 18 20 16 7 10 9 6 5 4 3 -2 -4 -6 -0 4 -0 2 4 8 11 9 10 9 9 9 9 11 10 5 2 1 3 5 8 13 12 11 12 8 13 15 13 15 12 8 7 9 9 9 8 6 7 8 7
5 6 10 9 4 4 6 4 7 10 7 13 9 -1 2 -5 -3 12 13 11 14 15 13 13 14 13 9 3 0 7 17 18 14 13 16 14 13 15 8 11 2 7 42 33 14 13 5 8 6 6 7 2 -4 1 18 11 -2 4 9 9 4 5 8 5 6 6 6 8 8 11 11 9 2 -4 5 8 4 13 15 12 11 6 9 13 12 13 13 10 6 6 8 8 9 8 7 8 7
7 11 11 5 4 7 9 7 7 9 10 15 7 2 9 4 8 19 17 17 18 16 15 13 14 18 17 14 7 6 12 13 11 11 16 19 20 17 9 9 -2 20 52 7 -9 17 7 3 6 8 6 1 -5 -5 20 23 6 8 13 14 8 3 3 2 6 6 9 12 10 8 8 8 8 8 11 10 3 9 15 12 12 12 14 15 11 8 11 13 7 3 6 7 7 6 7 7 7
7 10 8 5 9 10 8 7 7 9 13 15 8 9 12 6 12 14 11 18 18 8 6 10 14 18 19 19 16 10 8 8 8 8 12 16 16 18 19 17 6 20 19 -32 -18 22 10 6 9 10 8 2 2 -10 -11 -3 4 14 7 1 2 3 6 10 12 10 11 12 10 9 9 7 9 14 14 13 9 7 14 17 13 11 14 13 8 9 12 14 11 6 3 5 6 6 7 7 6
7 7 7 7 9 8 7 7 7 9 11 11 11 15 14 7 7 5 5 9 6 -0 2 9 12 13 13 13 14 12 14 15 14 9 5 6 4 7 13 18 13 12 5 -18 -4 19 21 24 10 6 8 -0 5 3 0 6 12 20 18 11 7 8 10 10 17 21 16 8 8 10 10 10 12 15 14 15 11 6 15 19 9 8 15 14 10 12 13 14 15 11 4 1 3 4 5 7 8
7 5 4 4 5 6 5 5 6 8 10 9 9 14 16 11 6 9 12 7 2 3 8 10 8 11 10 7 7 8 15 18 19 18 13 10 7 5 4 9 12 10 11 6 12 25 27 20 1 -3 4 2 1 6 12 14 12 15 20 16 6 3 -1 -3 8 17 16 11 11 12 11 11 11 11 13 15 12 7 9 12 12 13 14 13 14 15 13 15 19 18 15 7 5 6 6 6 9
5 2 1 1 4 5 1 3 4 6 8 7 7 9 12 10 7 10 11 8 8 8 10 8 5 10 9 5 5 7 11 12 13 15 16 16 10 10 8 4 6 10 11 7 14 27 22 12 10 8 9 12 6 6 11 2 -1 9 13 11 6 4 1 -0 2 5 11 13 10 10 11 11 11 12 11 9 12 13 9 11 16 13 7 5 4 2 2 7 16 20 18 12 9 9 9 9 10
5 2 2 3 7 7 2 3 4 6 8 6 8 11 10 8 6 6 6 7 8 8 8 7 6 8 6 5 9 11 7 6 7 7 12 18 13 10 8 5 8 9 11 14 14 14 14 13 14 11 6 12 14 8 6 -3 -1 8 5 5 9 10 9 7 6 8 11 10 9 11 12 12 12 12 8 5 8 10 12 18 19 14 9 6 6 10 14 13 17 20 16 14 12 8 7 7 8
6 4 5 6 8 7 4 5 4 5 5 5 9 11 9 5 4 5 5 6 7 7 6 6 6 7 6 4 6 5 1 2 3 2 7 13 14 11 7 11 16 11 12 24 24 12 12 14 9 10 9 9 15 12 2 2 9 11 5 3 6 6 7 6 6 9 8 7 12 13 10 10 12 12 13 12 8 5 11 20 18 13 15 16 15 21 25 22 22 21 17 14 14 14 14 11 8
7 5 6 7 6 7 6 5 3 3 3 5 8 6 4 3 4 5 5 7 9 8 6 6 7 6 5 3 2 -2 -1 5 6 3 4 6 10 11 13 18 17 15 16 18 21 8 -7 -3 1 5 5 -3 -1 6 3 2 8 9 7 6 5 6 7 7 6 7 7 8 11 10 8 7 8 13 16 16 14 9 9 14 12 13 23 16 3 7 13 14 17 17 15 12 10 13 15 16 15
7 5 5 5 6 8 8 6 6 6 5 6 6 3 3 6 8 9 8 8 7 7 6 7 8 7 5 4 4 2 4 8 7 4 3 6 9 12 19 21 14 14 14 8 15 21 4 -6 -2 -5 -5 -2 -1 3 2 2 8 7 7 10 11 11 10 8 8 7 6 6 7 10 10 8 5 4 5 13 24 23 14 10 6 5 8 -6 -12 5 14 11 11 12 14 15 15 15 12 11 11
8 6 6 7 9 11 9 7 5 6 8 9 8 5 6 8 8 9 8 5 5 6 7 8 8 6 7 9 11 11 9 6 7 8 8 12 16 20 25 20 13 10 14 9 -1 21 41 21 4 1 -0 5 7 5 2 5 8 6 7 10 11 11 10 10 11 9 7 6 8 9 9 10 9 5 8 11 13 17 16 14 13 13 6 -7 -8 1 7 9 8 8 10 11 14 18 20 17 12
9 9 11 11 10 9 6 5 5 9 14 10 4 5 9 8 6 5 4 4 6 8 9 10 6 3 6 10 14 9 2 3 10 11 9 15 18 24 27 18 14 10 11 14 -6 -1 27 17 1 3 3 4 7 5 4 6 6 6 7 7 9 11 12 12 10 8 8 8 7 8 9 11 11 9 10 6 2 7 13 13 12 17 17 8 5 5 6 10 8 9 10 8 10 12 16 19 17
9 9 10 10 8 6 7 10 13 15 17 13 8 8 9 5 4 5 5 6 6 6 8 8 4 2 2 5 10 5 5 13 17 16 10 7 9 12 13 7 12 20 15 15 9 -18 -27 -4 12 5 2 8 9 4 4 8 8 6 6 6 7 9 8 8 7 7 7 7 8 9 9 10 10 9 8 4 7 9 14 19 8 5 15 11 9 11 10 9 8 11 10 9 10 8 9 11 13
10 7 6 5 5 7 11 15 15 12 11 13 13 10 8 6 5 6 6 6 6 6 6 6 5 2 -2 3 7 3 7 11 5 9 6 -3 3 7 8 5 6 22 22 15 12 -22 -42 -1 21 3 1 8 5 3 6 10 8 4 6 6 5 6 6 5 7 8 8 8 9 9 9 11 11 12 12 8 9 8 11 23 11 -2 8 8 4 6 5 5 6 6 7 10 10 8 9 9 11
11 8 7 6 9 12 14 15 13 13 14 13 10 7 8 7 7 6 5 6 5 7 10 11 9 3 2 6 8 5 6 11 8 9 5 -4 4 11 10 9 6 14 18 15 10 -13 -19 9 11 -1 5 6 5 8 11 9 4 4 6 5 7 9 8 7 8 8 8 9 9 8 8 10 9 8 11 10 12 14 12 19 16 4 4 5 4 6 3 3 3 2 5 7 7 7 7 7 8
8 9 11 13 18 15 14 16 13 13 17 15 11 10 9 7 7 6 7 10 8 8 13 15 10 5 7 6 6 8 9 17 22 22 21 12 8 11 7 2 5 10 10 10 3 -8 -1 10 4 3 7 7 10 11 10 8 5 5 3 5 10 11 11 11 11 11 8 7 9 11 8 6 8 8 9 11 12 13 10 14 17 9 4 4 7 7 4 5 5 5 6 4 4 5 5 5 5
7 11 13 15 16 10 15 19 12 8 9 13 17 16 14 11 9 10 13 16 14 10 8 8 8 5 6 5 2 3 9 15 11 14 29 26 12 11 10 8 11 11 14 20 15 9 13 11 4 7 8 8 9 7 8 9 7 7 4 5 8 9 12 12 12 13 11 9 8 9 8 7 10 10 8 11 11 10 9 12 15 12 8 8 7 4 4 6 4 4 6 5 5 5 5 6 5
10 13 13 13 11 10 17 15 9 9 3 7 15 12 12 12 9 13 15 13 11 9 4 0 2 4 4 5 3 1 11 17 4 1 15 22 15 8 7 14 18 21 26 26 15 9 12 8 5 8 8 8 10 9 9 8 7 7 5 5 6 7 9 11 13 12 9 10 10 8 8 8 8 8 8 10 9 9 11 11 12 12 10 9 7 4 3 4 5 4 4 4 5 6 5 6 7
10 12 10 11 10 12 14 4 3 11 4 7 17 15 16 18 15 12 7 6 8 6 4 1 -0 4 3 1 3 3 7 11 3 0 8 19 21 7 2 5 4 6 7 -0 -3 5 13 13 12 12 13 14 14 9 4 4 6 7 8 7 7 7 7 9 10 11 11 10 10 10 10 9 8 7 8 9 8 9 11 11 11 10 9 7 5 6 4 3 4 5 4 4 4 6 4 4 8
14 13 11 12 9 9 11 0 -1 8 7 7 14 19 18 14 11 5 -2 3 10 7 6 6 2 2 2 -1 -1 1 7 6 3 7 8 19 29 16 9 10 6 5 5 5 9 10 10 9 10 12 13 12 8 6 6 8 7 8 10 8 8 8 8 9 8 9 13 12 11 12 12 11 10 10 8 8 8 9 9 8 10 9 8 7 6 5 5 4 5 5 5 4 4 5 4 3 5
20 14 11 12 7 6 11 5 3 8 10 5 3 10 10 2 2 3 2 5 10 9 6 5 3 2 2 -0 -3 2 11 4 2 13 6 9 28 21 12 13 10 11 13 15 13 6 5 6 9 10 8 7 6 9 11 6 4 9 10 7 8 10 10 12 11 9 9 11 11 10 12 13 10 10 9 9 10 10 10 9 8 9 8 7 7 6 5 5 5 5 5 5 5 5 4 3 2
18 15 10 11 7 5 8 7 6 7 8 6 -1 1 1 0 4 4 5 5 4 4 3 2 4 6 3 -2 -0 5 9 2 1 12 6 5 18 16 15 17 12 13 13 10 6 7 9 7 7 7 4 9 11 11 9 1 -0 6 8 6 5 5 7 11 13 13 11 11 12 10 10 11 9 8 7 8 10 9 9 9 8 9 9 8 7 8 8 7 7 8 7 6 7 5 4 6 3
14 17 9 9 8 6 10 9 7 4 5 4 -2 -2 1 3 4 2 3 5 3 1 -1 -0 1 1 -2 -2 6 6 2 2 2 5 6 9 13 13 23 25 16 13 12 13 13 10 11 8 7 7 7 11 9 5 6 2 -3 -3 1 7 8 1 -3 4 11 13 13 11 11 11 10 11 11 9 7 6 7 8 9 9 10 10 10 10 10 10 10 9 9 9 8 9 9 8 7 6 5
10 18 11 8 7 7 13 11 6 2 0 0 -2 -0 3 2 -0 0 2 2 4 4 0 1 2 -1 -3 2 8 4 2 2 0 7 11 14 17 17 21 24 21 19 12 13 15 10 9 9 7 8 8 9 8 9 11 7 0 -2 -3 -0 8 5 -8 -5 6 9 13 14 12 11 8 9 13 13 11 8 5 7 7 6 7 8 8 9 9 9 10 10 10 10 10 10 10 10 9 7 7
13 21 12 6 5 6 13 10 4 2 0 1 -1 -2 1 -3 -5 0 3 1 2 4 3 3 4 2 1 5 4 -1 -0 -2 -1 9 7 8 17 11 7 11 15 19 18 14 14 12 10 9 8 9 8 6 9 15 15 9 4 6 8 6 8 0 -15 -10 5 5 8 13 14 14 9 6 9 12 13 11 9 8 8 8 7 7 7 8 8 8 9 9 11 11 12 12 11 11 10 9 9
20 25 10 4 3 1 8 8 2 1 4 4 -3 -5 -1 -5 -4 5 8 6 4 4 4 2 2 4 4 7 6 1 -1 -3 3 10 1 1 10 4 3 7 3 4 10 10 10 9 7 7 9 9 7 5 8 11 9 5 1 2 12 19 15 -0 -12 -1 12 8 6 11 13 14 14 9 7 11 12 11 12 10 9 10 9 9 9 8 9 9 9 11 11 11 12 12 12 12 11 11 10
19 26 12 1 1 1 4 6 4 0 1 2 -3 -4 -0 -1 3 11 11 11 9 6 6 3 1 4 5 2 0 0 0 1 6 7 1 1 3 1 4 9 9 5 3 5 6 4 2 3 6 9 8 4 5 11 10 5 -2 -5 1 11 14 8 3 9 15 9 4 8 13 14 15 12 8 10 13 12 12 11 10 11 11 11 11 10 11 11 12 12 12 12 13 12 12 12 11 11 11
11 21 20 6 0 2 3 1 1 1 -1 -1 -2 -2 1 1 -0 4 10 13 11 8 7 3 -1 0 3 2 -1 -2 2 8 12 9 5 1 1 4 4 7 14 11 5 7 6 5 4 2 4 8 10 7 3 3 4 4 1 -2 0 5 9 12 9 8 13 12 6 8 15 17 15 13 10 10 13 12 11 10 9 9 10 10 11 12 12 13 13 13 13 13 12 13 13 13 13 12 13
12 14 22 18 6 0 1 1 -1 -1 -1 0 -1 -2 -0 -1 -5 -2 7 11 13 13 11 7 3 2 4 6 6 4 3 8 11 6 3 -0 -0 4 3 5 11 9 7 10 10 8 3 1 3 6 11 13 9 4 3 6 5 1 5 9 10 13 11 9 11 10 8 12 17 17 15 13 11 11 14 14 11 10 10 8 9 9 10 11 11 12 12 12 13 13 12 13 12 11 12 12 13
17 14 16 22 18 6 -2 -1 0 -1 -1 -0 -0 -2 -2 -0 2 4 7 9 11 12 11 12 12 9 7 8 9 8 5 6 4 1 2 4 4 5 5 7 7 6 9 11 14 9 0 0 3 8 18 13 3 3 -2 -6 -2 3 11 14 9 10 11 11 13 10 5 8 13 16 16 12 9 10 14 15 11 9 9 8 7 8 7 7 8 9 10 11 12 12 12 12 12 12 11 11 12
13 16 15 17 21 17 6 0 -0 0 2 3 1 -1 -2 1 3 6 7 7 8 11 14 15 16 15 11 8 9 8 5 2 -1 0 4 6 7 9 11 9 6 7 10 11 13 7 4 15 13 7 17 11 -0 4 -1 -6 2 8 17 13 -3 1 15 13 7 5 1 2 9 15 15 13 8 8 12 15 14 10 9 10 9 9 8 7 7 7 8 10 10 11 11 11 12 12 11 12 12
10 13 15 16 18 17 14 9 2 -3 -2 2 2 -1 1 5 5 4 4 4 9 14 12 10 15 19 16 11 8 3 0 3 5 7 9 10 9 8 6 5 3 5 8 11 12 7 10 25 19 3 9 13 8 9 6 3 4 4 13 19 3 -3 12 13 0 -1 2 2 6 11 13 13 9 7 11 14 14 11 9 9 10 10 12 11 10 10 9 9 8 8 8 10 11 11 11 12 12
12 9 9 15 18 16 16 15 10 3 -1 1 5 8 13 14 12 9 6 5 8 9 6 8 16 18 17 15 12 5 2 6 7 5 8 10 6 3 1 3 5 5 9 12 11 10 10 13 13 9 11 14 13 15 13 8 3 -6 -4 12 17 6 3 7 4 3 8 6 5 8 11 13 11 9 11 14 14 12 7 7 8 8 9 10 10 10 10 10 9 7 6 6 6 8 8 8 10
12 9 5 5 10 15 17 19 20 16 11 10 12 17 21 19 16 14 13 11 7 5 9 14 13 11 12 13 12 9 6 7 6 5 10 10 5 4 5 7 10 10 14 14 10 11 10 9 12 12 10 14 20 20 16 17 17 6 -2 4 16 14 3 5 9 4 4 7 4 4 6 9 12 10 8 9 11 12 8 5 6 6 6 6 5 5 6 7 7 7 7 7 6 7 7 7 7
12 14 13 7 6 11 12 12 15 16 14 13 14 15 16 15 15 13 12 14 12 7 8 9 8 9 14 16 14 9 5 4 5 6 7 6 7 13 13 12 15 15 14 13 8 8 8 10 11 8 7 12 14 6 4 22 34 19 4 7 23 28 7 -6 6 7 5 11 8 4 4 4 8 10 8 7 7 8 8 5 4 6 6 6 4 5 5 4 4 4 3 4 5 6 7 8 8
12 14 18 15 11 12 12 9 10 14 16 17 18 18 15 14 16 16 14 17 20 19 16 14 16 17 17 19 20 21 16 6 2 5 6 6 9 11 8 8 11 10 7 4 4 7 7 9 10 9 11 8 5 5 7 27 48 33 8 7 34 48 17 -5 12 16 8 12 10 7 7 5 9 10 6 7 7 6 6 5 5 6 5 5 5 7 9 10 10 9 7 6 5 5 5 6 8
17 11 9 12 10 7 10 12 11 10 11 15 18 18 15 13 13 16 18 14 10 15 20 19 15 10 7 8 10 15 15 8 6 11 11 8 7 6 9 13 9 4 3 1 3 5 3 5 7 6 9 5 4 11 10 11 24 23 7 -2 10 26 18 12 22 15 2 4 4 6 9 8 11 11 6 6 6 6 6 6 7 9 9 9 7 7 11 15 16 16 16 13 10 8 6 5 5
17 8 1 6 9 5 4 7 7 5 4 8 11 11 12 12 9 10 14 14 6 4 10 11 8 5 1 0 4 7 8 8 10 9 6 4 3 5 11 12 7 6 7 6 4 1 -1 3 5 2 6 9 9 10 11 8 6 7 6 3 4 12 16 14 9 2 -2 1 3 6 7 7 8 7 7 7 7 8 8 6 5 6 9 10 9 8 7 7 9 10 12 13 12 13 12 9 7
11 9 3 3 4 3 2 2 1 1 -0 1 2 2 4 8 9 8 8 10 9 5 4 5 6 7 4 4 9 10 7 6 5 3 4 8 10 7 1 -3 -0 5 7 7 2 -2 3 6 7 7 6 8 9 7 5 4 3 8 12 12 13 14 14 8 -1 2 6 5 8 9 6 6 6 4 7 8 9 8 6 7 7 4 5 6 8 9 5 2 -0 -1 2 6 7 10 13 13 9
Height
5828 5828 5829 5829 5829 5829 5829 5830 5830 5830 5831 5832 5832 5833 5834 5834 5833 5834 5834 5835 5836 5837 5835 5835 5835 5835 5836 5836 5836 5835 5835 5835 5835 5835 5835 5836 5836 5837 5837 5838 5838 5838 5838 5838 5838 5838 5838 5838 5838 5837 5837 5836 5836 5836 5835 5836 5835 5835 5836 5836 5836 5836 5836 5836 5836 5837 5837 5836 5836 5835 5835 5834 5834 5833 5833 5832 5832 5832 5831 5831 5831 5830 5830 5830 5829 5829 5829 5830 5830 5830 5831 5832 5833 5833 5834 5835 5835
5825 5825 5826 5826 5827 5827 5827 5828 5828 5828 5829 5829 5830 5832 5831 5829 5829 5832 5833 5833 5834 5834 5833 5833 5833 5833 5833 5834 5834 5833 5833 5833 5833 5833 5833 5834 5835 5836 5836 5836 5836 5836 5836 5836 5836 5836 5836 5836 5836 5836 5835 5835 5835 5834 5834 5834 5834 5834 5834 5834 5835 5835 5834 5835 5835 5835 5836 5835 5835 5834 5834 5833 5832 5832 5831 5831 5831 5830 5830 5829 5829 5829 5829 5828 5828 5828 5828 5829 5829 5829 5830 5831 5832 5833 5834 5834 5834
5822 5823 5823 5824 5824 5824 5824 5825 5825 5826 5826 5827 5829 5830 5828 5826 5827 5829 5831 5831 5831 5831 5831 5831 5831 5831 5831 5831 5831 5831 5831 5831 5831 5831 5831 5832 5833 5833 5834 5834 5833 5834 5833 5833 5833 5834 5834 5834 5835 5835 5835 5834 5834 5833 5833 5833 5832 5832 5832 5833 5833 5833 5833 5833 5833 5834 5834 5833 5833 5832 5832 5832 5831 5831 5830 5830 5829 5829 5828 5828 5827 5827 5827 5827 5827 5827 5827 5827 5828 5828 5829 5830 5831 5832 5833 5833 5833
5819 5820 5820 5821 5821 5821 5821 5822 5823 5823 5823 5825 5828 5827 5825 5823 5823 5825 5827 5828 5829 5829 5829 5829 5829 5829 5829 5829 5828 5829 5829 5829 5830 5830 5830 5830 5831 5831 5832 5832 5831 5831 5831 5831 5831 5831 5832 5832 5833 5834 5834 5833 5833 5832 5832 5831 5831 5831 5831 5831 5831 5831 5831 5831 5831 5832 5832 5831 5831 5830 5830 5830 5830 5829 5829 5828 5827 5827 5826 5826 5825 5826 5826 5825 5825 5825 5826 5826 5826 5827 5828 5829 5830 5831 5832 5832 5833
5817 5817 5817 5818 5818 5818 5819 5819 5820 5821 5822 5824 5825 5823 5822 5820 5820 5822 5825 5826 5826 5827 5826 5826 5826 5826 5826 5827 5826 5827 5827 5828 5829 5829 5829 5829 5829 5829 5829 5829 5829 5829 5829 5829 5828 5828 5829 5830 5830 5831 5832 5832 5831 5831 5830 5830 5830 5830 5830 5829 5829 5829 5829 5830 5830 5830 5829 5829 5829 5828 5829 5829 5828 5828 5827 5826 5825 5825 5825 5825 5824 5824 5824 5824 5824 5824 5824 5825 5825 5825 5827 5828 5829 5830 5830 5831 5832
5814 5814 5815 5815 5815 5816 5816 5817 5817 5819 5820 5822 5822 5820 5819 5817 5817 5818 5822 5824 5824 5824 5823 5823 5824 5823 5824 5824 5825 5825 5825 5826 5826 5826 5827 5827 5827 5826 5826 5826 5827 5827 5827 5827 5826 5826 5827 5828 5828 5829 5829 5829 5830 5829 5829 5828 5828 5828 5828 5828 5828 5828 5827 5827 5827 5827 5827 5827 5826 5826 5827 5827 5826 5826 5825 5824 5824 5823 5823 5823 5823 5823 5823 5823 5823 5823 5823 5824 5824 5824 5825 5826 5827 5828 5829 5830 5831
5811 5812 5812 5812 5812 5813 5813 5814 5815 5816 5818 5819 5818 5816 5815 5815 5815 5815 5817 5821 5822 5822 5821 5821 5821 5820 5821 5821 5823 5823 5823 5824 5824 5824 5824 5825 5825 5824 5824 5825 5825 5825 5825 5825 5824 5824 5825 5826 5827 5827 5827 5827 5827 5828 5827 5827 5827 5827 5827 5826 5826 5826 5825 5825 5825 5825 5825 5825 5824 5824 5824 5824 5824 5824 5823 5823 5823 5822 5822 5822 5822 5821 5822 5822 5822 5822 5822 5822 5822 5823 5824 5825 5826 5827 5828 5829 5829
5809 5809 5810 5810 5810 5810 5811 5812 5813 5814 5815 5815 5814 5813 5813 5812 5812 5812 5814 5817 5819 5819 5819 5819 5818 5818 5818 5819 5820 5820 5821 5821 5821 5822 5822 5822 5822 5822 5823 5823 5823 5823 5822 5822 5822 5823 5823 5824 5825 5825 5825 5825 5825 5825 5825 5825 5825 5825 5825 5825 5824 5824 5824 5824 5823 5823 5822 5822 5822 5822 5821 5822 5822 5822 5822 5822 5822 5821 5820 5820 5820 5820 5820 5820 5820 5820 5821 5821 5821 5821 5822 5824 5825 5825 5826 5827 5828
5806 5806 5807 5807 5808 5808 5809 5809 5810 5811 5811 5811 5810 5809 5810 5809 5809 5809 5811 5814 5815 5816 5816 5816 5816 5816 5816 5816 5817 5817 5817 5818 5819 5819 5819 5819 5820 5821 5822 5822 5821 5821 5820 5820 5820 5820 5821 5822 5822 5822 5822 5823 5823 5823 5823 5823 5823 5823 5823 5823 5823 5823 5823 5822 5822 5821 5820 5820 5819 5819 5820 5820 5820 5820 5821 5821 5820 5820 5819 5818 5818 5818 5818 5818 5819 5819 5819 5819 5820 5820 5821 5822 5823 5824 5824 5826 5827
5803 5804 5804 5805 5805 5805 5806 5807 5807 5807 5807 5808 5808 5807 5807 5807 5807 5808 5810 5813 5813 5813 5814 5814 5814 5814 5814 5814 5814 5814 5814 5814 5815 5816 5816 5817 5818 5819 5819 5819 5818 5818 5818 5818 5817 5817 5819 5819 5819 5820 5820 5821 5821 5820 5820 5820 5821 5821 5821 5821 5821 5822 5822 5821 5820 5819 5818 5818 5818 5818 5818 5818 5818 5819 5819 5818 5818 5818 5818 5817 5817 5817 5817 5817 5817 5818 5818 5818 5818 5818 5819 5820 5821 5822 5823 5824 5825
5801 5801 5802 5802 5802 5803 5803 5804 5805 5805 5805 5806 5806 5805 5804 5805 5805 5807 5810 5811 5812 5812 5812 5811 5812 5812 5811 5811 5812 5812 5811 5812 5812 5813 5814 5815 5815 5816 5816 5816 5815 5816 5816 5815 5814 5814 5816 5816 5816 5817 5818 5818 5818 5817 5818 5818 5819 5819 5819 5820 5820 5820 5820 5819 5817 5817 5817 5817 5817 5817 5817 5816 5816 5816 5816 5816 5816 5816 5816 5816 5815 5816 5816 5816 5816 5816 5817 5817 5817 5817 5817 5818 5819 5821 5823 5823 5824
5798 5798 5799 5799 5800 5800 5801 5802 5802 5803 5803 5804 5804 5803 5803 5803 5803 5806 5809 5810 5810 5809 5808 5808 5809 5809 5809 5809 5809 5808 5809 5810 5810 5810 5811 5811 5811 5811 5811 5812 5813 5813 5813 5813 5812 5810 5812 5813 5814 5815 5815 5815 5815 5815 5816 5817 5817 5818 5818 5819 5819 5818 5817 5816 5815 5815 5815 5815 5815 5815 5814 5814 5814 5814 5813 5813 5813 5813 5814 5814 5814 5814 5814 5814 5814 5815 5815 5816 5816 5816 5816 5817 5818 5820 5822 5822 5823
5795 5796 5796 5797 5798 5798 5799 5800 5800 5800 5800 5801 5801 5801 5801 5801 5802 5804 5806 5808 5808 5807 5806 5805 5806 5806 5806 5806 5805 5805 5806 5808 5808 5808 5808 5807 5806 5807 5808 5809 5809 5809 5810 5810 5809 5807 5808 5810 5811 5812 5812 5812 5813 5814 5815 5815 5816 5817 5817 5817 5817 5815 5813 5812 5812 5813 5813 5813 5813 5813 5813 5813 5812 5811 5811 5810 5810 5811 5811 5811 5812 5812 5812 5812 5813 5813 5813 5814 5815 5815 5815 5816 5816 5818 5820 5821 5821
5793 5794 5794 5795 5796 5796 5797 5797 5797 5797 5797 5797 5797 5798 5798 5798 5799 5801 5803 5804 5805 5805 5804 5803 5803 5803 5803 5803 5802 5803 5804 5805 5804 5804 5805 5805 5804 5805 5805 5806 5806 5806 5807 5808 5807 5805 5806 5808 5808 5810 5810 5810 5811 5812 5813 5814 5815 5815 5815 5814 5813 5811 5810 5810 5811 5812 5812 5812 5812 5812 5812 5810 5808 5808 5807 5807 5808 5808 5809 5809 5809 5810 5811 5811 5811 5811 5812 5812 5813 5813 5814 5814 5814 5815 5817 5819 5820
5790 5791 5792 5792 5793 5794 5795 5795 5795 5795 5795 5794 5795 5795 5795 5796 5798 5799 5800 5802 5802 5802 5802 5801 5800 5801 5801 5801 5802 5802 5802 5801 5801 5801 5802 5803 5803 5803 5803 5804 5803 5803 5804 5805 5806 5804 5805 5806 5806 5808 5809 5809 5810 5811 5812 5813 5812 5812 5812 5811 5809 5808 5809 5810 5810 5810 5809 5809 5809 5808 5807 5805 5805 5805 5804 5804 5805 5806 5806 5807 5808 5808 5809 5809 5810 5810 5810 5811 5811 5811 5812 5812 5812 5813 5815 5816 5818
5788 5789 5790 5790 5791 5792 5793 5793 5792 5792 5792 5792 5793 5794 5794 5794 5796 5797 5798 5799 5799 5799 5799 5799 5798 5799 5800 5800 5801 5800 5800 5798 5798 5799 5800 5801 5801 5802 5802 5802 5802 5802 5802 5803 5803 5803 5803 5804 5805 5806 5806 5807 5809 5810 5810 5810 5809 5809 5809 5808 5807 5808 5808 5807 5807 5807 5806 5806 5805 5804 5804 5805 5804 5803 5802 5803 5803 5804 5804 5805 5805 5806 5807 5808 5808 5808 5809 5809 5809 5810 5810 5810 5811 5812 5813 5814 5815
5786 5787 5788 5789 5789 5790 5791 5791 5790 5790 5790 5790 5790 5792 5792 5792 5794 5795 5795 5796 5797 5797 5797 5797 5797 5797 5798 5799 5799 5798 5797 5796 5796 5796 5797 5798 5799 5800 5800 5800 5800 5800 5800 5801 5801 5801 5802 5803 5804 5804 5804 5805 5807 5807 5807 5806 5806 5806 5806 5806 5805 5806 5805 5803 5804 5804 5803 5803 5802 5803 5804 5804 5803 5801 5801 5801 5801 5802 5802 5802 5803 5804 5805 5806 5806 5807 5807 5807 5808 5808 5808 5808 5809 5810 5811 5812 5814
5785 5786 5786 5787 5787 5788 5789 5789 5788 5788 5788 5788 5788 5789 5789 5790 5792 5793 5793 5794 5795 5795 5795 5795 5795 5796 5796 5797 5796 5796 5795 5794 5794 5794 5795 5795 5796 5797 5798 5798 5798 5798 5798 5797 5797 5798 5800 5801 5801 5801 5802 5803 5804 5804 5803 5802 5802 5803 5804 5804 5803 5802 5801 5800 5800 5801 5800 5801 5801 5801 5802 5801 5800 5799 5799 5799 5798 5799 5799 5800 5801 5802 5802 5804 5804 5805 5805 5805 5805 5806 5806 5806 5807 5808 5809 5810 5811
5783 5784 5785 5785 5785 5785 5786 5786 5786 5786 5786 5786 5786 5786 5787 5788 5791 5792 5792 5794 5793 5793 5794 5794 5794 5795 5795 5794 5794 5794 5794 5793 5793 5792 5792 5793 5794 5795 5796 5796 5796 5796 5794 5792 5792 5795 5798 5798 5798 5798 5798 5800 5801 5800 5798 5798 5799 5800 5802 5801 5800 5799 5798 5798 5798 5798 5798 5799 5799 5799 5799 5798 5798 5798 5798 5797 5795 5796 5796 5797 5799 5800 5800 5801 5802 5802 5802 5803 5803 5803 5804 5804 5805 5806 5807 5808 5809
5781 5782 5783 5782 5782 5782 5783 5783 5783 5784 5783 5784 5783 5784 5786 5788 5790 5792 5792 5793 5792 5792 5792 5792 5792 5793 5793 5792 5792 5792 5792 5791 5790 5790 5790 5791 5792 5793 5794 5794 5794 5793 5793 5794 5791 5793 5795 5795 5795 5794 5795 5798 5799 5798 5794 5793 5797 5799 5800 5798 5797 5797 5796 5797 5797 5797 5796 5797 5798 5798 5797 5796 5795 5796 5795 5794 5793 5793 5794 5795 5797 5798 5798 5799 5799 5800 5800 5800 5801 5801 5802 5802 5803 5803 5804 5806 5807
5778 5780 5780 5779 5779 5780 5782 5781 5781 5781 5782 5782 5782 5784 5786 5786 5789 5790 5790 5790 5789 5789 5789 5789 5789 5790 5790 5790 5791 5790 5790 5789 5788 5788 5789 5789 5790 5791 5792 5793 5793 5791 5792 5794 5792 5791 5791 5791 5790 5790 5793 5796 5798 5797 5792 5791 5796 5797 5797 5796 5796 5796 5795 5796 5796 5796 5795 5795 5796 5795 5795 5794 5794 5793 5792 5792 5791 5791 5792 5794 5795 5795 5796 5796 5797 5797 5797 5798 5798 5798 5799 5800 5801 5801 5802 5803 5804
5775 5777 5777 5777 5778 5779 5780 5779 5779 5780 5781 5781 5782 5784 5785 5785 5787 5788 5787 5786 5787 5787 5786 5787 5788 5788 5788 5788 5788 5788 5788 5788 5787 5788 5788 5789 5789 5789 5790 5791 5791 5790 5790 5790 5789 5787 5786 5786 5788 5789 5792 5796 5796 5795 5791 5792 5795 5795 5794 5795 5795 5794 5794 5794 5794 5794 5793 5793 5793 5793 5792 5792 5792 5790 5789 5789 5789 5789 5790 5791 5792 5793 5793 5794 5794 5795 5795 5796 5796 5796 5796 5797 5798 5799 5800 5800 5802
5773 5775 5775 5775 5776 5777 5777 5777 5777 5778 5779 5780 5782 5783 5783 5784 5785 5784 5784 5784 5785 5785 5785 5785 5786 5786 5786 5786 5786 5786 5786 5787 5787 5787 5788 5788 5789 5789 5789 5789 5789 5789 5789 5788 5785 5782 5782 5784 5788 5790 5792 5794 5793 5792 5791 5793 5794 5793 5793 5793 5793 5792 5792 5791 5791 5791 5790 5789 5789 5789 5789 5789 5789 5788 5788 5788 5787 5787 5787 5788 5789 5790 5791 5792 5792 5792 5793 5793 5793 5794 5794 5795 5796 5797 5798 5798 5799
5770 5773 5773 5773 5774 5775 5775 5775 5775 5776 5777 5778 5780 5781 5782 5783 5783 5781 5781 5782 5783 5783 5784 5784 5784 5784 5784 5784 5784 5785 5786 5786 5786 5786 5787 5787 5788 5788 5788 5788 5787 5786 5786 5785 5783 5782 5783 5785 5786 5787 5789 5790 5790 5790 5791 5793 5793 5792 5791 5791 5790 5789 5789 5789 5788 5788 5787 5787 5786 5785 5785 5786 5787 5788 5787 5786 5786 5785 5785 5786 5787 5788 5789 5790 5790 5790 5791 5791 5791 5791 5792 5793 5794 5795 5796 5796 5797
5769 5771 5771 5771 5772 5773 5773 5773 5774 5774 5775 5776 5778 5779 5780 5781 5780 5779 5780 5780 5781 5781 5782 5782 5782 5782 5782 5782 5783 5784 5785 5785 5785 5785 5785 5785 5786 5787 5787 5787 5786 5784 5782 5781 5781 5782 5782 5781 5782 5784 5786 5787 5787 5788 5789 5790 5791 5790 5789 5788 5787 5786 5787 5787 5786 5785 5784 5784 5784 5783 5783 5785 5786 5787 5787 5786 5786 5785 5785 5784 5785 5786 5787 5788 5788 5789 5789 5789 5789 5790 5790 5791 5792 5793 5794 5794 5795
5767 5768 5768 5769 5770 5771 5771 5771 5772 5773 5774 5774 5776 5777 5777 5777 5777 5777 5778 5778 5779 5779 5780 5780 5780 5780 5780 5781 5782 5782 5783 5783 5783 5783 5783 5783 5783 5784 5784 5783 5781 5779 5777 5776 5777 5779 5778 5777 5780 5783 5784 5785 5786 5786 5787 5788 5789 5789 5787 5786 5784 5783 5784 5784 5783 5782 5782 5782 5783 5782 5783 5784 5785 5786 5786 5785 5785 5785 5784 5784 5784 5785 5786 5786 5786 5787 5788 5788 5788 5788 5789 5790 5790 5791 5791 5792 5793
5765 5765 5766 5768 5769 5769 5769 5770 5770 5771 5772 5773 5774 5775 5775 5775 5775 5775 5776 5776 5777 5777 5778 5778 5778 5778 5779 5780 5780 5781 5781 5781 5781 5781 5781 5781 5780 5780 5780 5778 5777 5776 5776 5777 5775 5775 5776 5777 5780 5783 5784 5784 5785 5786 5786 5787 5787 5787 5786 5784 5782 5781 5781 5781 5780 5780 5780 5781 5782 5782 5781 5782 5784 5785 5785 5785 5784 5784 5784 5784 5784 5784 5785 5785 5785 5785 5785 5786 5786 5786 5787 5788 5788 5789 5790 5790 5791
5762 5763 5765 5766 5767 5767 5768 5769 5768 5768 5770 5771 5773 5773 5773 5774 5773 5774 5773 5774 5775 5776 5776 5776 5777 5776 5777 5778 5779 5779 5779 5779 5779 5779 5779 5778 5777 5777 5777 5776 5778 5779 5779 5780 5778 5773 5773 5777 5779 5782 5783 5783 5784 5784 5785 5786 5785 5785 5784 5783 5781 5780 5780 5779 5779 5778 5779 5780 5781 5781 5780 5781 5782 5782 5783 5783 5783 5783 5783 5783 5783 5784 5784 5784 5784 5784 5784 5784 5784 5785 5785 5785 5786 5787 5788 5788 5789
5759 5761 5762 5764 5765 5766 5766 5766 5766 5766 5768 5769 5770 5771 5772 5772 5771 5771 5771 5773 5774 5774 5774 5775 5775 5775 5776 5776 5777 5777 5778 5777 5777 5777 5777 5776 5776 5775 5775 5776 5778 5779 5779 5781 5781 5776 5772 5773 5776 5780 5782 5782 5782 5782 5782 5783 5782 5782 5781 5781 5780 5779 5779 5778 5778 5778 5778 5779 5780 5779 5779 5779 5780 5780 5780 5781 5781 5781 5782 5782 5783 5783 5783 5783 5783 5784 5784 5783 5783 5783 5783 5783 5784 5785 5785 5786 5787
5756 5758 5760 5761 5763 5764 5764 5763 5763 5764 5765 5766 5767 5768 5770 5771 5769 5769 5770 5771 5772 5772 5773 5773 5773 5773 5774 5775 5775 5776 5776 5776 5776 5776 5775 5774 5774 5774 5774 5776 5777 5777 5778 5780 5781 5780 5775 5770 5772 5777 5779 5780 5781 5781 5781 5781 5781 5780 5780 5779 5778 5778 5778 5778 5779 5779 5778 5778 5778 5778 5778 5778 5778 5778 5779 5779 5779 5779 5779 5780 5781 5781 5782 5782 5782 5782 5782 5782 5782 5782 5782 5782 5783 5783 5784 5784 5785
5754 5755 5757 5758 5759 5760 5760 5760 5761 5762 5762 5763 5763 5765 5769 5769 5767 5766 5768 5769 5770 5771 5771 5772 5772 5772 5772 5773 5773 5775 5775 5775 5775 5774 5774 5773 5773 5773 5774 5775 5775 5775 5777 5778 5779 5780 5776 5771 5772 5776 5778 5780 5781 5781 5781 5780 5780 5780 5779 5778 5777 5777 5777 5778 5778 5778 5777 5777 5776 5776 5776 5775 5776 5777 5777 5778 5778 5777 5777 5778 5778 5778 5779 5780 5780 5780 5780 5781 5781 5781 5781 5782 5782 5782 5782 5782 5782
5751 5752 5753 5754 5755 5756 5756 5758 5759 5759 5759 5760 5760 5763 5766 5766 5764 5764 5766 5768 5768 5768 5769 5770 5770 5770 5770 5771 5772 5774 5774 5774 5774 5774 5773 5773 5773 5773 5774 5773 5773 5774 5775 5776 5776 5776 5775 5773 5774 5777 5778 5779 5780 5780 5780 5779 5779 5778 5778 5777 5777 5776 5775 5776 5776 5776 5776 5775 5775 5775 5774 5774 5774 5775 5776 5776 5777 5776 5776 5776 5776 5775 5776 5777 5778 5778 5779 5779 5780 5781 5781 5780 5780 5780 5780 5781 5781
5748 5749 5750 5751 5752 5752 5754 5755 5755 5755 5755 5757 5758 5760 5763 5762 5761 5762 5764 5766 5766 5766 5767 5768 5768 5768 5769 5770 5770 5772 5773 5773 5774 5774 5774 5774 5773 5773 5773 5772 5772 5772 5773 5774 5774 5774 5773 5774 5776 5777 5778 5778 5778 5779 5779 5778 5777 5777 5777 5776 5776 5775 5774 5773 5773 5774 5774 5774 5774 5774 5773 5773 5773 5774 5775 5775 5775 5775 5774 5775 5775 5776 5775 5775 5776 5777 5777 5778 5779 5780 5780 5780 5779 5779 5779 5780 5779
5745 5746 5747 5748 5749 5750 5751 5751 5751 5752 5753 5754 5756 5758 5760 5760 5759 5760 5762 5763 5764 5764 5765 5765 5766 5766 5767 5768 5768 5769 5771 5773 5773 5773 5773 5773 5772 5772 5772 5771 5770 5771 5772 5773 5773 5773 5773 5774 5776 5777 5777 5777 5777 5777 5777 5776 5775 5775 5775 5775 5774 5774 5773 5772 5772 5772 5772 5773 5773 5773 5772 5772 5772 5773 5773 5774 5774 5773 5773 5773 5774 5775 5775 5774 5774 5775 5776 5777 5778 5779 5779 5779 5778 5778 5778 5778 5779
5742 5743 5745 5746 5747 5748 5748 5749 5749 5751 5752 5753 5754 5755 5757 5758 5757 5757 5759 5761 5762 5762 5762 5762 5763 5764 5765 5766 5767 5767 5769 5771 5772 5771 5771 5771 5771 5771 5771 5771 5770 5770 5771 5772 5772 5772 5773 5774 5775 5776 5776 5776 5776 5776 5775 5774 5774 5774 5774 5773 5773 5772 5772 5771 5770 5771 5771 5771 5771 5771 5771 5771 5771 5771 5772 5772 5772 5772 5771 5771 5772 5773 5773 5772 5773 5774 5775 5776 5777 5778 5778 5778 5777 5777 5776 5777 5777
5740 5742 5743 5744 5745 5746 5747 5747 5747 5748 5749 5750 5752 5754 5755 5755 5755 5756 5757 5758 5759 5759 5760 5760 5761 5762 5763 5764 5765 5766 5767 5769 5770 5769 5769 5769 5769 5769 5769 5770 5770 5770 5770 5770 5771 5772 5773 5773 5774 5775 5775 5775 5775 5774 5773 5772 5772 5773 5772 5771 5770 5769 5769 5769 5769 5769 5769 5769 5769 5769 5768 5768 5769 5769 5769 5770 5771 5771 5770 5770 5770 5770 5771 5771 5772 5773 5774 5775 5775 5776 5776 5776 5776 5775 5775 5775 5776
5738 5740 5741 5742 5743 5744 5745 5746 5745 5746 5748 5749 5750 5752 5753 5753 5754 5755 5755 5756 5756 5757 5757 5758 5759 5760 5761 5763 5764 5764 5765 5767 5768 5767 5767 5767 5767 5768 5768 5769 5770 5769 5769 5769 5769 5770 5772 5772 5772 5773 5773 5773 5773 5772 5771 5770 5770 5770 5769 5768 5767 5767 5766 5766 5766 5766 5766 5767 5766 5766 5766 5766 5766 5766 5767 5767 5768 5769 5769 5769 5769 5770 5770 5770 5771 5771 5772 5773 5773 5774 5774 5774 5774 5774 5774 5774 5775
5737 5738 5739 5740 5741 5742 5743 5744 5744 5745 5747 5747 5749 5750 5751 5752 5753 5753 5753 5754 5755 5756 5756 5757 5757 5758 5760 5761 5763 5763 5764 5765 5766 5766 5766 5766 5766 5767 5767 5768 5768 5768 5768 5768 5768 5768 5769 5769 5769 5769 5769 5770 5770 5770 5769 5768 5767 5767 5766 5765 5764 5764 5764 5764 5764 5764 5764 5764 5764 5764 5763 5764 5764 5764 5765 5765 5766 5767 5767 5768 5768 5768 5769 5769 5769 5770 5770 5771 5772 5772 5772 5772 5772 5773 5773 5773 5773
5735 5736 5737 5738 5739 5740 5741 5742 5743 5744 5745 5746 5747 5748 5749 5750 5751 5751 5751 5752 5753 5754 5755 5756 5756 5757 5758 5760 5761 5761 5762 5763 5764 5764 5765 5765 5765 5765 5765 5765 5765 5766 5766 5766 5766 5766 5766 5766 5766 5766 5767 5767 5767 5767 5767 5766 5765 5764 5764 5763 5763 5762 5762 5762 5762 5762 5762 5763 5763 5762 5762 5762 5762 5762 5762 5763 5763 5764 5764 5765 5766 5766 5767 5767 5768 5768 5769 5769 5769 5769 5770 5770 5770 5771 5771 5771 5772
5734 5735 5736 5737 5737 5738 5740 5741 5742 5742 5744 5745 5746 5746 5747 5748 5748 5748 5749 5749 5750 5752 5753 5754 5755 5756 5757 5758 5760 5760 5761 5761 5762 5763 5764 5764 5764 5763 5763 5763 5763 5763 5763 5763 5763 5764 5764 5764 5764 5764 5765 5765 5765 5765 5765 5764 5763 5763 5763 5762 5762 5762 5762 5761 5761 5761 5760 5761 5761 5761 5761 5760 5760 5760 5761 5761 5761 5762 5762 5763 5764 5764 5765 5766 5766 5766 5766 5766 5766 5767 5767 5767 5768 5768 5769 5769 5770
5732 5734 5735 5735 5736 5737 5738 5739 5740 5741 5742 5743 5744 5744 5745 5746 5746 5746 5747 5747 5749 5750 5751 5753 5753 5754 5755 5756 5758 5759 5759 5759 5760 5761 5763 5763 5763 5763 5763 5762 5762 5761 5761 5762 5762 5762 5762 5762 5763 5763 5764 5764 5764 5764 5764 5763 5762 5762 5762 5762 5762 5762 5762 5761 5760 5759 5759 5759 5759 5759 5760 5760 5759 5759 5760 5760 5760 5760 5761 5761 5762 5763 5764 5764 5764 5764 5764 5764 5764 5764 5764 5765 5765 5766 5766 5767 5768
5731 5733 5734 5733 5734 5735 5736 5737 5737 5739 5740 5741 5741 5742 5744 5744 5745 5745 5745 5746 5747 5749 5750 5751 5752 5752 5754 5755 5756 5757 5757 5758 5759 5760 5762 5763 5762 5762 5762 5762 5761 5761 5761 5761 5761 5761 5761 5761 5762 5762 5763 5763 5763 5763 5762 5762 5762 5761 5761 5761 5760 5761 5761 5760 5760 5759 5758 5757 5757 5757 5758 5758 5758 5759 5759 5760 5760 5760 5760 5761 5761 5761 5762 5762 5762 5763 5762 5762 5762 5762 5762 5762 5763 5763 5764 5764 5766
5729 5732 5732 5732 5732 5733 5734 5735 5735 5737 5737 5738 5739 5741 5742 5743 5744 5744 5745 5745 5746 5747 5748 5750 5750 5751 5752 5753 5754 5755 5756 5756 5757 5759 5760 5761 5761 5761 5761 5761 5761 5760 5760 5760 5760 5760 5760 5761 5761 5761 5762 5761 5761 5761 5761 5761 5761 5760 5760 5759 5759 5760 5759 5759 5759 5758 5758 5757 5756 5756 5755 5756 5756 5757 5757 5758 5759 5759 5760 5760 5760 5760 5760 5760 5761 5761 5761 5761 5760 5760 5760 5760 5761 5761 5761 5762 5762
5727 5729 5730 5730 5730 5731 5732 5733 5733 5735 5735 5736 5737 5739 5740 5741 5743 5743 5743 5744 5745 5745 5746 5748 5749 5750 5751 5752 5752 5753 5754 5755 5756 5757 5759 5759 5759 5760 5761 5761 5761 5760 5760 5760 5759 5759 5759 5760 5760 5760 5760 5760 5760 5760 5760 5759 5759 5759 5758 5758 5758 5758 5758 5757 5757 5757 5757 5756 5755 5754 5754 5754 5754 5755 5755 5755 5756 5757 5758 5758 5759 5759 5759 5758 5758 5759 5759 5759 5759 5759 5758 5758 5758 5759 5759 5759 5760
5725 5726 5727 5727 5728 5729 5730 5731 5732 5732 5733 5735 5736 5737 5738 5740 5742 5742 5742 5743 5743 5744 5744 5746 5747 5748 5749 5750 5751 5751 5752 5753 5754 5756 5757 5757 5757 5759 5760 5760 5760 5760 5759 5759 5758 5758 5758 5758 5758 5759 5759 5758 5758 5758 5758 5758 5758 5758 5757 5757 5756 5756 5756 5755 5755 5755 5756 5755 5754 5753 5752 5752 5752 5753 5753 5753 5754 5754 5755 5756 5756 5757 5757 5757 5757 5757 5757 5757 5757 5757 5756 5756 5756 5756 5757 5757 5757
5722 5723 5724 5725 5725 5727 5728 5729 5730 5730 5732 5733 5734 5735 5736 5738 5741 5742 5741 5741 5742 5742 5742 5743 5745 5746 5747 5748 5749 5749 5750 5751 5752 5753 5754 5755 5755 5757 5758 5758 5758 5758 5757 5757 5756 5756 5756 5756 5756 5756 5756 5756 5755 5754 5755 5755 5756 5756 5755 5755 5755 5754 5754 5753 5753 5753 5753 5753 5752 5752 5751 5751 5751 5751 5751 5752 5752 5752 5753 5753 5754 5755 5755 5755 5755 5755 5755 5755 5755 5754 5754 5754 5754 5754 5754 5755 5755
5719 5720 5721 5722 5723 5725 5726 5727 5728 5728 5730 5731 5732 5732 5734 5735 5738 5740 5740 5740 5740 5740 5740 5741 5743 5744 5745 5746 5747 5747 5748 5749 5750 5751 5751 5752 5752 5753 5755 5755 5755 5755 5755 5755 5754 5754 5754 5754 5753 5753 5753 5751 5750 5750 5750 5752 5753 5753 5753 5753 5753 5753 5752 5751 5751 5751 5751 5751 5750 5750 5749 5749 5749 5750 5750 5750 5751 5751 5751 5751 5752 5752 5753 5753 5753 5753 5753 5753 5753 5752 5752 5752 5752 5752 5752 5753 5753
5717 5718 5719 5721 5721 5722 5723 5724 5725 5726 5727 5728 5729 5730 5731 5732 5735 5737 5738 5738 5738 5739 5739 5740 5741 5741 5743 5744 5745 5745 5746 5747 5748 5748 5748 5749 5749 5750 5751 5752 5752 5752 5752 5752 5752 5752 5752 5751 5750 5747 5745 5744 5744 5745 5746 5747 5749 5750 5750 5750 5751 5751 5749 5748 5748 5749 5748 5748 5748 5748 5748 5748 5748 5748 5749 5749 5749 5749 5749 5750 5750 5750 5750 5751 5751 5751 5751 5751 5751 5751 5751 5750 5750 5750 5750 5750 5751
5714 5716 5717 5719 5719 5720 5722 5722 5723 5724 5725 5726 5727 5728 5729 5730 5732 5734 5735 5735 5736 5737 5738 5738 5739 5739 5740 5742 5743 5743 5744 5745 5745 5745 5745 5745 5746 5747 5748 5748 5749 5749 5749 5749 5750 5749 5748 5747 5745 5743 5744 5745 5745 5745 5745 5745 5747 5748 5747 5747 5748 5748 5747 5746 5746 5746 5746 5745 5746 5746 5746 5746 5746 5746 5747 5747 5747 5747 5747 5748 5748 5748 5748 5748 5749 5749 5749 5749 5749 5749 5749 5749 5749 5748 5748 5748 5749
5712 5713 5715 5716 5716 5718 5720 5720 5721 5722 5723 5724 5724 5726 5726 5727 5728 5730 5731 5732 5733 5734 5735 5736 5737 5737 5738 5739 5741 5741 5742 5742 5743 5742 5741 5741 5742 5743 5744 5745 5745 5745 5745 5745 5746 5746 5744 5743 5744 5745 5746 5747 5745 5744 5743 5743 5744 5744 5743 5744 5746 5746 5745 5744 5743 5743 5743 5743 5744 5744 5744 5744 5744 5744 5745 5745 5745 5745 5746 5746 5746 5746 5747 5747 5747 5747 5747 5747 5748 5748 5748 5748 5748 5747 5747 5747 5747
5710 5711 5712 5713 5715 5716 5718 5719 5719 5720 5721 5721 5722 5723 5723 5723 5724 5727 5728 5729 5729 5731 5732 5733 5734 5735 5736 5737 5738 5738 5739 5739 5739 5739 5739 5738 5739 5739 5740 5740 5741 5741 5741 5742 5742 5742 5741 5740 5742 5743 5743 5742 5742 5742 5742 5741 5741 5740 5740 5741 5742 5743 5742 5741 5741 5741 5741 5741 5741 5742 5742 5742 5742 5742 5743 5743 5743 5743 5743 5744 5744 5745 5745 5745 5745 5746 5746 5746 5746 5746 5747 5747 5747 5746 5746 5746 5746
5707 5708 5710 5712 5713 5714 5715 5716 5717 5717 5718 5719 5719 5720 5720 5720 5721 5723 5726 5727 5727 5728 5729 5730 5731 5732 5733 5734 5735 5735 5736 5736 5736 5736 5735 5735 5735 5736 5736 5737 5737 5737 5738 5739 5739 5739 5738 5738 5738 5739 5738 5737 5738 5739 5739 5739 5738 5737 5738 5738 5740 5740 5739 5739 5739 5739 5738 5739 5739 5740 5740 5740 5741 5741 5741 5741 5742 5742 5742 5742 5742 5743 5743 5744 5744 5744 5745 5745 5745 5745 5745 5746 5746 5745 5745 5745 5745
5704 5706 5708 5709 5710 5711 5713 5713 5714 5715 5716 5717 5717 5718 5718 5718 5718 5720 5723 5724 5724 5725 5725 5726 5727 5728 5729 5730 5731 5732 5732 5732 5732 5733 5732 5732 5733 5733 5733 5734 5734 5735 5735 5735 5736 5736 5736 5736 5735 5736 5735 5733 5734 5735 5736 5736 5736 5735 5735 5736 5737 5737 5736 5737 5738 5737 5736 5737 5737 5738 5739 5739 5739 5740 5740 5740 5740 5740 5740 5740 5741 5741 5742 5742 5742 5743 5743 5743 5744 5744 5744 5745 5745 5745 5745 5744 5744
5702 5704 5705 5706 5707 5709 5710 5711 5711 5712 5713 5714 5715 5716 5716 5714 5714 5716 5720 5721 5721 5722 5722 5722 5723 5724 5726 5727 5727 5728 5729 5729 5729 5729 5729 5730 5730 5730 5731 5732 5732 5732 5732 5732 5732 5732 5733 5733 5733 5733 5732 5731 5730 5731 5731 5731 5731 5732 5732 5732 5733 5733 5733 5734 5735 5734 5734 5735 5735 5736 5737 5737 5738 5738 5738 5738 5738 5738 5739 5739 5739 5740 5740 5741 5741 5741 5741 5742 5742 5742 5742 5743 5743 5743 5744 5744 5743
5700 5701 5702 5703 5705 5706 5707 5708 5708 5709 5711 5712 5712 5712 5712 5711 5711 5713 5717 5718 5719 5719 5719 5720 5721 5722 5723 5724 5724 5725 5726 5726 5726 5727 5727 5727 5728 5729 5729 5730 5730 5730 5729 5729 5729 5729 5730 5730 5730 5730 5730 5729 5728 5727 5727 5726 5727 5728 5728 5728 5729 5729 5730 5731 5732 5732 5732 5733 5733 5734 5735 5736 5736 5737 5737 5737 5737 5737 5737 5737 5738 5738 5739 5739 5739 5740 5740 5740 5740 5740 5740 5740 5741 5741 5741 5742 5742
5698 5698 5699 5701 5702 5703 5704 5705 5706 5707 5708 5709 5709 5709 5709 5710 5710 5711 5714 5716 5717 5718 5718 5718 5719 5719 5720 5721 5721 5722 5723 5724 5724 5724 5724 5725 5726 5726 5727 5727 5727 5727 5727 5726 5726 5727 5727 5728 5728 5728 5728 5727 5726 5725 5725 5725 5725 5726 5726 5726 5726 5727 5728 5729 5730 5730 5730 5730 5731 5732 5732 5733 5734 5735 5735 5735 5735 5736 5736 5736 5736 5737 5737 5737 5738 5738 5738 5739 5739 5739 5739 5739 5739 5739 5739 5739 5739
5696 5696 5697 5698 5699 5700 5701 5702 5703 5704 5706 5706 5707 5707 5708 5708 5709 5709 5711 5712 5714 5715 5716 5716 5716 5716 5717 5718 5718 5719 5720 5721 5721 5721 5722 5723 5724 5724 5724 5724 5724 5724 5724 5724 5724 5724 5724 5725 5725 5725 5725 5725 5724 5723 5723 5723 5724 5725 5724 5724 5724 5725 5726 5727 5727 5728 5728 5728 5729 5729 5729 5730 5731 5732 5733 5733 5733 5734 5734 5734 5735 5735 5735 5736 5736 5736 5737 5737 5737 5737 5737 5737 5738 5738 5737 5737 5737
5694 5694 5695 5696 5697 5697 5699 5700 5701 5702 5703 5704 5704 5705 5706 5706 5707 5708 5708 5709 5710 5712 5713 5713 5713 5714 5714 5715 5716 5717 5718 5718 5718 5719 5719 5720 5721 5721 5722 5722 5722 5722 5722 5722 5721 5721 5721 5721 5722 5722 5722 5722 5722 5722 5722 5723 5723 5723 5722 5722 5722 5723 5723 5724 5724 5724 5725 5726 5726 5726 5726 5727 5727 5728 5729 5730 5730 5731 5731 5732 5732 5733 5733 5734 5734 5734 5734 5734 5735 5735 5735 5735 5736 5735 5736 5736 5736